User: anonymous   Login
Location: Brede
(50.9167°N, 0.6000°E)
Time: 15:44:50
(UTC+00:00)
Language:

CZ-2C R/B - Orbit

View from above orbital plane
View from above orbital plane
View from above satellite
View from above satellite

Ground track
Ground track

The orbit data is extracted from the following two-line orbital elements,

1 36089U 09061B   20292.90367012 -.00000019  00000-0  70469-5 0  9997
2 36089  98.1697 262.6563 0080682 253.2847 132.5361 14.49835998578431
Epoch (UTC): 18 October 2020 21:41:17
Eccentricity: 0.0080682
inclination: 98.1697°
perigee height: 669 km
apogee height: 783 km
right ascension of ascending node: 262.6563°
argument of perigee: 253.2847°
revolutions per day: 14.49835998
mean anomaly at epoch: 132.5361°
orbit number at epoch: 57843

The dashed part of the orbit path shows where the satellite is in the earth's shadow,  

DLR